sat.trackr.live / text

‹ back to catalog

STARLINK-36166

NORAD 67084 · 2025-298K

PAYLOAD ACTIVE UNKNOWN

§ Identity

Operator
Country
US
Launch date
2025-12-14
Launch site
AFWTR
Launch vehicle
Mass (kg)
RCS (m²)

Purposes: comms

External: N2YO · Heavens-Above · Gunter

§ Orbital elements

Epoch: 2026-09-19T16:39:50.529312Z

Period
96.11 min
Inclination
69.9991°
Eccentricity
0.0003665
Mean motion
14.98328498 rev/d
Perigee alt
569.5 km
Apogee alt
574.6 km
Semi-major
6,950.2 km
B*
3.9153e-5
RAAN
245.4468°
Arg perigee
273.9193°
Mean anomaly
86.1547°
Rev number
4,227

§ Raw data

STARLINK-361661 67084U 25298K   26262.69433483  .00000374  00000+0  39153-4 0  99972 67084  69.9991 245.4468 0003665 273.9193  86.1547 14.98328498 42279

JSON: /api/v1/satellites/67084 · /tle

For live sub-satellite position, see the globe view (requires WebGL).

§ Visibility from observer

Set your observer location to see the next 7 days of passes ≥ 10°. The values pass through the URL so the page stays shareable.

No JS? Fill the form by hand. The geolocation button needs JavaScript.